| time (UTC) | temp F | wind direction | speed knots | gust knots | rain 1hr in | rain 24hr in | rain mn in | humidity % | barometer mb |
| 20260505153152 | 33 | 22 | 7.8 | 11.3 | 0.00 | 0.01 | 0.01 | 94 | 1015.0 |
| 20260505152649 | 33 | 28 | 6.1 | 10.4 | 0.00 | 0.01 | 0.01 | 94 | 1015.0 |
| 20260505152144 | 33 | 23 | 4.3 | 7.8 | 0.00 | 0.01 | 0.01 | 94 | 1014.9 |
| 20260505151640 | 33 | 3 | 6.1 | 7.8 | 0.00 | 0.01 | 0.01 | 94 | 1015.0 |
| 20260505151138 | 33 | 19 | 4.3 | 7.0 | 0.00 | 0.01 | 0.01 | 95 | 1015.1 |
| 20260505150634 | 34 | 22 | 5.2 | 7.0 | 0.00 | 0.01 | 0.01 | 95 | 1014.9 |
| 20260505150131 | 33 | 334 | 5.2 | 7.0 | 0.00 | 0.01 | 0.01 | 94 | 1014.9 |
| 20260505140600 | 33 | 9 | 8.7 | 13.9 | 0.00 | 0.01 | 0.01 | 95 | 1015.1 |
| 20260505125012 | 37 | 30 | 9.6 | 13.0 | 0.00 | 0.01 | 0.01 | 91 | 1014.6 |
| 20260505124504 | 37 | 359 | 5.2 | 7.8 | 0.00 | 0.01 | 0.01 | 91 | 1014.1 |
| 20260505124000 | 38 | 356 | 4.3 | 6.1 | 0.00 | 0.01 | 0.01 | 91 | 1014.1 |
| 20260505123457 | 39 | 348 | 1.7 | 5.2 | 0.00 | 0.01 | 0.01 | 91 | 1014.1 |
| 20260505122952 | 39 | 2 | 6.1 | 6.1 | 0.00 | 0.01 | 0.01 | 90 | 1013.9 |
| 20260505122450 | 40 | 22 | 2.6 | 7.8 | 0.00 | 0.01 | 0.01 | 89 | 1013.8 |
| 20260505121947 | 41 | 336 | 3.5 | 5.2 | 0.00 | 0.01 | 0.01 | 88 | 1013.5 |
| 20260505121443 | 41 | 31 | 2.6 | 3.5 | 0.00 | 0.01 | 0.01 | 87 | 1013.5 |
| 20260505120939 | 41 | 184 | 0.0 | 1.7 | 0.00 | 0.01 | 0.01 | 85 | 1013.6 |
| 20260505120436 | 41 | 279 | 1.7 | 1.7 | 0.00 | 0.01 | 0.01 | 84 | 1013.6 |
| 20260505115935 | 41 | 310 | 2.6 | 2.6 | 0.00 | 0.01 | 0.01 | 82 | 1013.6 |
| 20260505115431 | 41 | 294 | 2.6 | 2.6 | 0.00 | 0.01 | 0.01 | 81 | 1013.6 |
| 20260505114929 | 41 | 330 | 1.7 | 3.5 | 0.00 | 0.01 | 0.01 | 80 | 1013.5 |
| 20260505114425 | 41 | 194 | 1.7 | 1.7 | 0.00 | 0.01 | 0.01 | 80 | 1013.8 |
| 20260505113921 | 41 | 141 | 1.7 | 4.3 | 0.00 | 0.01 | 0.01 | 80 | 1013.5 |
| 20260505113418 | 41 | 154 | 0.9 | 2.6 | 0.00 | 0.01 | 0.01 | 81 | 1013.9 |
| 20260505112914 | 41 | 213 | 1.7 | 3.5 | 0.00 | 0.01 | 0.01 | 82 | 1013.4 |
| 20260505112412 | 41 | 242 | 4.3 | 4.3 | 0.00 | 0.01 | 0.01 | 84 | 1013.0 |
| 20260505111908 | 41 | 221 | 3.5 | 4.3 | 0.00 | 0.01 | 0.01 | 87 | 1013.5 |
| 20260505111403 | 41 | 139 | 2.6 | 5.2 | 0.00 | 0.01 | 0.01 | 89 | 1013.3 |
| 20260505110859 | 41 | 150 | 1.7 | 7.0 | 0.00 | 0.01 | 0.01 | 91 | 1013.3 |
| 20260505110357 | 41 | 176 | 2.6 | 3.5 | 0.00 | 0.01 | 0.01 | 92 | 1013.5 |
| 20260505101827 | 41 | 157 | 2.6 | 3.5 | 0.00 | 0.01 | 0.01 | 95 | 1013.2 |
| 20260505101322 | 41 | 152 | 1.7 | 2.6 | 0.00 | 0.01 | 0.01 | 95 | 1012.9 |
| 20260505100818 | 41 | 60 | 1.7 | 1.7 | 0.00 | 0.01 | 0.01 | 94 | 1013.0 |
| 20260505100315 | 41 | 17 | 0.0 | 1.7 | 0.00 | 0.01 | 0.01 | 94 | 1013.0 |
| 20260505095810 | 41 | 40 | 0.9 | 2.6 | 0.00 | 0.01 | 0.01 | 94 | 1013.2 |
| 20260505095308 | 41 | 149 | 0.0 | 1.7 | 0.00 | 0.01 | 0.01 | 94 | 1013.0 |
| 20260505094804 | 41 | 50 | 0.0 | 3.5 | 0.00 | 0.01 | 0.01 | 95 | 1013.3 |
| 20260505094301 | 41 | 263 | 0.0 | 1.7 | 0.00 | 0.01 | 0.01 | 95 | 1013.0 |
| 20260505093756 | 41 | 81 | 0.0 | 1.7 | 0.00 | 0.01 | 0.01 | 95 | 1013.3 |
| 20260505093254 | 41 | 150 | 1.7 | 1.7 | 0.00 | 0.01 | 0.01 | 95 | 1012.9 |
| 20260505092751 | 41 | 153 | 0.0 | 1.7 | 0.00 | 0.01 | 0.01 | 95 | 1012.8 |
| 20260505092249 | 41 | 135 | 0.0 | 1.7 | 0.00 | 0.01 | 0.01 | 95 | 1012.8 |
| 20260505091746 | 41 | 176 | 0.9 | 1.7 | 0.00 | 0.01 | 0.01 | 95 | 1012.9 |
| 20260505091244 | 41 | 180 | 3.5 | 3.5 | 0.00 | 0.01 | 0.01 | 95 | 1013.2 |
| 20260505090742 | 41 | 160 | 1.7 | 2.6 | 0.00 | 0.01 | 0.01 | 94 | 1013.3 |
| 20260505090240 | 41 | 17 | 0.0 | 0.9 | 0.00 | 0.01 | 0.01 | 94 | 1013.0 |
| 20260505085737 | 41 | 132 | 0.0 | 1.7 | 0.00 | 0.01 | 0.01 | 93 | 1013.0 |
| 20260505085235 | 41 | 30 | 0.9 | 1.7 | 0.00 | 0.01 | 0.01 | 93 | 1013.4 |
| 20260505084732 | 41 | 31 | 0.0 | 0.9 | 0.00 | 0.01 | 0.01 | 93 | 1013.4 |
| 20260505084231 | 41 | 60 | 0.0 | 0.0 | 0.00 | 0.01 | 0.01 | 93 | 1013.5 |
| 20260505083728 | 41 | 55 | 0.0 | 0.9 | 0.00 | 0.01 | 0.01 | 93 | 1013.5 |
| 20260505083224 | 42 | 80 | 0.0 | 1.7 | 0.00 | 0.01 | 0.01 | 93 | 1013.6 |
| 20260505082720 | 42 | 125 | 0.0 | 0.9 | 0.00 | 0.01 | 0.01 | 93 | 1013.6 |
| 20260505082218 | 42 | 87 | 0.0 | 1.7 | 0.00 | 0.01 | 0.01 | 92 | 1013.8 |
| 20260505081713 | 42 | 12 | 1.7 | 2.6 | 0.00 | 0.01 | 0.01 | 93 | 1014.0 |
| 20260505081211 | 42 | 9 | 1.7 | 2.6 | 0.00 | 0.01 | 0.01 | 93 | 1013.9 |
| 20260505080708 | 42 | 7 | 0.0 | 1.7 | 0.00 | 0.01 | 0.01 | 92 | 1013.8 |
| 20260505080204 | 42 | 5 | 0.9 | 3.5 | 0.00 | 0.01 | 0.01 | 92 | 1013.9 |
| 20260505075700 | 42 | 45 | 2.6 | 3.5 | 0.00 | 0.01 | 0.01 | 93 | 1013.9 |
| 20260505075157 | 42 | 21 | 0.9 | 2.6 | 0.00 | 0.01 | 0.01 | 93 | 1014.1 |
| 20260505074654 | 42 | 12 | 1.7 | 3.5 | 0.00 | 0.01 | 0.01 | 93 | 1014.3 |
| 20260505074151 | 42 | 15 | 1.7 | 1.7 | 0.00 | 0.01 | 0.01 | 93 | 1014.1 |
| 20260505073649 | 42 | 327 | 1.7 | 2.6 | 0.00 | 0.01 | 0.01 | 93 | 1014.3 |
| 20260505073147 | 42 | 345 | 1.7 | 1.7 | 0.00 | 0.01 | 0.01 | 93 | 1014.4 |
| 20260505072642 | 42 | 7 | 0.9 | 4.3 | 0.00 | 0.01 | 0.01 | 93 | 1014.5 |
| 20260505072139 | 42 | 322 | 1.7 | 2.6 | 0.00 | 0.01 | 0.01 | 93 | 1014.4 |
| 20260505071634 | 42 | 339 | 1.7 | 1.7 | 0.00 | 0.01 | 0.01 | 93 | 1014.3 |
| 20260505071132 | 42 | 339 | 0.9 | 1.7 | 0.00 | 0.01 | 0.01 | 92 | 1014.4 |
| 20260505070629 | 42 | 356 | 0.9 | 0.9 | 0.02 | 0.01 | 0.01 | 92 | 1014.5 |
| 20260505070125 | 42 | 335 | 1.7 | 1.7 | 0.02 | 0.01 | 0.01 | 92 | 1014.6 |
| 20260505065621 | 42 | 74 | 0.9 | 4.3 | 0.00 | 0.01 | 0.01 | 92 | 1014.5 |
| 20260505065118 | 42 | 346 | 1.7 | 4.3 | 0.00 | 0.01 | 0.01 | 91 | 1014.9 |
| 20260505064615 | 42 | 27 | 1.7 | 3.5 | 0.00 | 0.01 | 0.01 | 91 | 1014.5 |
| 20260505064114 | 42 | 19 | 2.6 | 3.5 | 0.00 | 0.01 | 0.01 | 91 | 1014.6 |
| 20260505063610 | 42 | 19 | 1.7 | 2.6 | 0.00 | 0.01 | 0.01 | 91 | 1014.4 |
| 20260505063106 | 42 | 332 | 0.9 | 1.7 | 0.00 | 0.01 | 0.01 | 91 | 1014.6 |
| 20260505062603 | 42 | 328 | 0.9 | 1.7 | 0.02 | 0.01 | 0.01 | 91 | 1014.6 |
| 20260505062100 | 42 | 323 | 0.0 | 2.6 | 0.02 | 0.01 | 0.01 | 90 | 1014.4 |
| 20260505061557 | 43 | 314 | 1.7 | 1.7 | 0.00 | 0.00 | 0.00 | 90 | 1014.4 |
| 20260505061055 | 43 | 3 | 1.7 | 1.7 | 0.02 | 0.00 | 0.00 | 89 | 1014.6 |
| 20260505060553 | 43 | 6 | 0.0 | 2.6 | 0.05 | 0.00 | 0.00 | 89 | 1014.5 |
| 20260505060049 | 43 | 42 | 1.7 | 2.6 | 0.02 | 0.06 | 0.06 | 87 | 1014.6 |
| 20260505055544 | 43 | 8 | 0.0 | 1.7 | 0.00 | 0.06 | 0.06 | 87 | 1014.9 |
| 20260505055041 | 43 | 41 | 0.0 | 1.7 | 0.00 | 0.06 | 0.06 | 87 | 1014.9 |
| 20260505054539 | 43 | 26 | 1.7 | 1.7 | 0.00 | 0.06 | 0.06 | 86 | 1015.1 |
| 20260505054037 | 43 | 353 | 0.0 | 3.5 | 0.00 | 0.06 | 0.06 | 86 | 1014.6 |
| 20260505053534 | 43 | 9 | 1.7 | 4.3 | 0.00 | 0.06 | 0.06 | 86 | 1014.9 |
| 20260505053030 | 43 | 20 | 3.5 | 3.5 | 0.00 | 0.06 | 0.06 | 86 | 1014.6 |
| 20260505052527 | 43 | 42 | 0.0 | 2.6 | 0.02 | 0.06 | 0.06 | 86 | 1014.9 |
| 20260505052025 | 43 | 127 | 1.7 | 4.3 | 0.02 | 0.06 | 0.06 | 86 | 1014.6 |
| 20260505051521 | 43 | 346 | 2.6 | 4.3 | 0.00 | 0.06 | 0.06 | 87 | 1014.6 |
| 20260505051020 | 43 | 344 | 2.6 | 4.3 | 0.02 | 0.06 | 0.06 | 87 | 1014.6 |
| 20260505050518 | 43 | 314 | 3.5 | 4.3 | 0.02 | 0.06 | 0.06 | 87 | 1014.5 |
| 20260505041445 | 43 | 58 | 3.5 | 4.3 | 0.00 | 0.05 | 0.05 | 83 | 1014.3 |
| 20260505040943 | 43 | 17 | 1.7 | 2.6 | 0.00 | 0.05 | 0.05 | 83 | 1014.1 |
| 20260505040440 | 44 | 352 | 4.3 | 4.3 | 0.00 | 0.05 | 0.05 | 82 | 1014.1 |
| 20260505035936 | 44 | 33 | 3.5 | 8.7 | 0.00 | 0.05 | 0.05 | 81 | 1014.5 |
| 20260505035432 | 43 | 37 | 4.3 | 5.2 | 0.00 | 0.05 | 0.05 | 82 | 1013.9 |
| 20260505034930 | 43 | 334 | 7.0 | 8.7 | 0.00 | 0.05 | 0.05 | 83 | 1013.8 |
| 20260505034426 | 44 | 56 | 3.5 | 5.2 | 0.02 | 0.05 | 0.05 | 85 | 1013.9 |
| 20260505033923 | 44 | 34 | 3.5 | 3.5 | 0.02 | 0.05 | 0.05 | 85 | 1014.4 |
| 20260505033420 | 44 | 33 | 4.3 | 8.7 | 0.00 | 0.05 | 0.05 | 83 | 1014.1 |
| 20260505032918 | 44 | 299 | 5.2 | 5.2 | 0.00 | 0.05 | 0.05 | 84 | 1014.4 |
| 20260505032415 | 44 | 18 | 4.3 | 5.2 | 0.00 | 0.05 | 0.05 | 84 | 1014.4 |
| 20260505031912 | 44 | 16 | 3.5 | 6.1 | 0.02 | 0.05 | 0.05 | 85 | 1014.1 |
| 20260505031409 | 44 | 348 | 3.5 | 6.1 | 0.02 | 0.05 | 0.05 | 84 | 1014.0 |
| 20260505030905 | 44 | 25 | 3.5 | 6.1 | 0.02 | 0.04 | 0.04 | 84 | 1013.9 |
| 20260505030401 | 45 | 32 | 3.5 | 5.2 | 0.02 | 0.04 | 0.04 | 84 | 1013.5 |
| 20260505025857 | 45 | 35 | 5.2 | 6.1 | 0.02 | 0.04 | 0.04 | 82 | 1014.0 |
| 20260505025355 | 45 | 0 | 7.8 | 9.6 | 0.02 | 0.04 | 0.04 | 81 | 1014.1 |
| 20260505024853 | 46 | 38 | 3.5 | 5.2 | 0.00 | 0.04 | 0.04 | 81 | 1014.0 |
| 20260505024351 | 45 | 0 | 2.6 | 5.2 | 0.00 | 0.04 | 0.04 | 80 | 1014.3 |
| 20260505023847 | 46 | 1 | 1.7 | 5.2 | 0.00 | 0.04 | 0.04 | 81 | 1014.0 |
| 20260505023344 | 46 | 7 | 1.7 | 4.3 | 0.00 | 0.04 | 0.04 | 79 | 1014.0 |
| 20260505022842 | 46 | 325 | 1.7 | 2.6 | 0.00 | 0.04 | 0.04 | 80 | 1014.0 |
| 20260505022338 | 45 | 315 | 4.3 | 4.3 | 0.02 | 0.04 | 0.04 | 79 | 1013.9 |
| 20260505021836 | 45 | 323 | 1.7 | 2.6 | 0.02 | 0.04 | 0.04 | 80 | 1014.0 |
| 20260505021332 | 45 | 10 | 1.7 | 3.5 | 0.00 | 0.03 | 0.03 | 77 | 1013.9 |
| 20260505020828 | 45 | 31 | 1.7 | 3.5 | 0.02 | 0.03 | 0.03 | 78 | 1013.8 |
| 20260505020324 | 46 | 19 | 2.6 | 3.5 | 0.02 | 0.03 | 0.03 | 77 | 1014.1 |
| 20260505015821 | 46 | 24 | 1.7 | 3.5 | 0.00 | 0.03 | 0.03 | 77 | 1013.9 |
| 20260505015318 | 46 | 0 | 2.6 | 3.5 | 0.00 | 0.03 | 0.03 | 77 | 1013.6 |
| 20260505014815 | 46 | 10 | 1.7 | 7.0 | 0.02 | 0.03 | 0.03 | 75 | 1013.6 |
| 20260505014312 | 46 | 0 | 2.6 | 6.1 | 0.02 | 0.02 | 0.02 | 76 | 1013.6 |
| 20260505013808 | 47 | 316 | 2.6 | 7.0 | 0.05 | 0.02 | 0.02 | 72 | 1013.2 |
| 20260505013306 | 47 | 337 | 3.5 | 7.8 | 0.07 | 0.02 | 0.02 | 69 | 1013.5 |
| 20260505012804 | 47 | 8 | 4.3 | 6.1 | 0.05 | 0.01 | 0.01 | 69 | 1013.6 |
| 20260505012304 | 49 | 2 | 7.8 | 14.8 | 0.05 | 0.01 | 0.01 | 63 | 1013.8 |
| 20260505011757 | 50 | 19 | 10.4 | 20.0 | 0.00 | 0.00 | 0.00 | 59 | 1013.8 |
| 20260505011254 | 51 | 335 | 10.4 | 16.5 | 0.00 | 0.00 | 0.00 | 56 | 1013.5 |
| 20260505010750 | 51 | 335 | 8.7 | 13.9 | 0.00 | 0.00 | 0.00 | 51 | 1013.0 |
| 20260505010247 | 52 | 330 | 4.3 | 11.3 | 0.00 | 0.00 | 0.00 | 47 | 1013.2 |
| 20260505005743 | 52 | 337 | 5.2 | 10.4 | 0.00 | 0.00 | 0.00 | 46 | 1013.2 |
| 20260505005240 | 52 | 331 | 7.8 | 9.6 | 0.00 | 0.00 | 0.00 | 46 | 1012.9 |
| 20260505004738 | 52 | 348 | 5.2 | 11.3 | 0.00 | 0.00 | 0.00 | 47 | 1012.8 |
| 20260505004233 | 53 | 330 | 6.1 | 10.4 | 0.00 | 0.00 | 0.00 | 47 | 1012.7 |
| 20260505003731 | 53 | 338 | 5.2 | 14.8 | 0.00 | 0.00 | 0.00 | 46 | 1012.5 |
| 20260505003228 | 53 | 358 | 6.1 | 9.6 | 0.00 | 0.00 | 0.00 | 44 | 1012.3 |
| 20260505002725 | 53 | 35 | 7.0 | 9.6 | 0.00 | 0.00 | 0.00 | 44 | 1012.2 |
| 20260505002222 | 54 | 327 | 5.2 | 13.0 | 0.00 | 0.00 | 0.00 | 44 | 1012.3 |
| 20260505001720 | 54 | 39 | 4.3 | 13.9 | 0.00 | 0.00 | 0.00 | 43 | 1011.8 |
| 20260505001217 | 54 | 30 | 7.0 | 13.9 | 0.00 | 0.00 | 0.00 | 43 | 1012.3 |
| 20260505000714 | 55 | 33 | 6.1 | 15.6 | 0.00 | 0.00 | 0.00 | 42 | 1012.2 |
| 20260505000212 | 55 | 35 | 9.6 | 14.8 | 0.00 | 0.00 | 0.00 | 39 | 1012.3 |
| 20260504235708 | 57 | 17 | 9.6 | 14.8 | 0.00 | 0.00 | 0.00 | 38 | 1012.0 |
| 20260504235204 | 58 | 4 | 6.1 | 11.3 | 0.00 | 0.00 | 0.00 | 35 | 1011.7 |
| 20260504234702 | 58 | 12 | 4.3 | 11.3 | 0.00 | 0.00 | 0.00 | 34 | 1011.5 |
| 20260504234159 | 58 | 27 | 5.2 | 7.0 | 0.00 | 0.00 | 0.00 | 35 | 1011.8 |
| 20260504233654 | 58 | 4 | 2.6 | 8.7 | 0.00 | 0.00 | 0.00 | 35 | 1011.7 |
| 20260504233150 | 58 | 23 | 4.3 | 7.0 | 0.00 | 0.00 | 0.00 | 35 | 1012.2 |
| 20260504232649 | 59 | 11 | 5.2 | 11.3 | 0.00 | 0.00 | 0.00 | 34 | 1011.9 |
| 20260504232145 | 59 | 357 | 7.8 | 13.0 | 0.00 | 0.00 | 0.00 | 34 | 1012.0 |
| 20260504231642 | 59 | 26 | 5.2 | 13.0 | 0.00 | 0.00 | 0.00 | 32 | 1011.9 |
| 20260504231138 | 59 | 356 | 4.3 | 7.0 | 0.00 | 0.00 | 0.00 | 34 | 1011.8 |
| 20260504230634 | 59 | 21 | 5.2 | 7.0 | 0.00 | 0.00 | 0.00 | 34 | 1011.9 |
| 20260504230133 | 59 | 36 | 7.8 | 9.6 | 0.00 | 0.00 | 0.00 | 33 | 1011.7 |
| 20260504225631 | 60 | 18 | 7.0 | 13.9 | 0.00 | 0.00 | 0.00 | 32 | 1011.7 |
| 20260504225127 | 59 | 22 | 5.2 | 9.6 | 0.00 | 0.00 | 0.00 | 31 | 1011.7 |
| 20260504224624 | 59 | 26 | 8.7 | 10.4 | 0.00 | 0.00 | 0.00 | 32 | 1011.7 |
| 20260504224120 | 60 | 20 | 6.1 | 13.0 | 0.00 | 0.00 | 0.00 | 32 | 1011.4 |
| 20260504223618 | 60 | 305 | 11.3 | 14.8 | 0.00 | 0.00 | 0.00 | 31 | 1011.2 |
| 20260504223113 | 60 | 16 | 11.3 | 13.0 | 0.00 | 0.00 | 0.00 | 31 | 1010.9 |
| 20260504222611 | 60 | 321 | 6.1 | 18.2 | 0.00 | 0.00 | 0.00 | 31 | 1011.0 |
| 20260504222108 | 61 | 313 | 12.2 | 14.8 | 0.00 | 0.00 | 0.00 | 30 | 1011.2 |
| 20260504221605 | 61 | 343 | 7.8 | 11.3 | 0.00 | 0.00 | 0.00 | 30 | 1011.3 |
| 20260504221102 | 62 | 3 | 6.1 | 14.8 | 0.00 | 0.00 | 0.00 | 29 | 1011.0 |
| 20260504220558 | 62 | 0 | 7.0 | 7.8 | 0.00 | 0.00 | 0.00 | 25 | 1011.2 |
| 20260504220056 | 62 | 343 | 6.1 | 9.6 | 0.00 | 0.00 | 0.00 | 26 | 1011.0 |
| 20260504215552 | 62 | 354 | 7.8 | 12.2 | 0.00 | 0.00 | 0.00 | 26 | 1011.0 |
| 20260504215049 | 62 | 358 | 7.0 | 13.0 | 0.00 | 0.00 | 0.00 | 26 | 1011.2 |
| 20260504214544 | 62 | 20 | 7.8 | 11.3 | 0.00 | 0.00 | 0.00 | 26 | 1011.0 |
| 20260504214042 | 62 | 6 | 7.0 | 11.3 | 0.00 | 0.00 | 0.00 | 25 | 1011.3 |
| 20260504213538 | 63 | 6 | 6.1 | 13.9 | 0.00 | 0.00 | 0.00 | 25 | 1011.2 |
| 20260504213035 | 63 | 21 | 9.6 | 13.9 | 0.00 | 0.00 | 0.00 | 25 | 1011.3 |
| 20260504212531 | 63 | 16 | 5.2 | 11.3 | 0.00 | 0.00 | 0.00 | 25 | 1011.0 |
| 20260504212029 | 63 | 48 | 4.3 | 15.6 | 0.00 | 0.00 | 0.00 | 24 | 1011.4 |
| 20260504211525 | 63 | 26 | 9.6 | 14.8 | 0.00 | 0.00 | 0.00 | 25 | 1011.2 |
| 20260504211022 | 63 | 319 | 9.6 | 13.0 | 0.00 | 0.00 | 0.00 | 24 | 1011.3 |
| 20260504210519 | 63 | 4 | 2.6 | 7.8 | 0.00 | 0.00 | 0.00 | 25 | 1011.2 |
| 20260504210016 | 62 | 4 | 7.0 | 12.2 | 0.00 | 0.00 | 0.00 | 26 | 1011.3 |
| 20260504205514 | 62 | 19 | 7.8 | 13.0 | 0.00 | 0.00 | 0.00 | 26 | 1011.3 |
| 20260504205012 | 62 | 8 | 7.8 | 13.9 | 0.00 | 0.00 | 0.00 | 26 | 1011.4 |
| 20260504204510 | 62 | 327 | 7.0 | 15.6 | 0.00 | 0.00 | 0.00 | 26 | 1011.4 |
| 20260504204009 | 63 | 355 | 13.0 | 16.5 | 0.00 | 0.00 | 0.00 | 27 | 1011.3 |
| 20260504203506 | 63 | 344 | 4.3 | 11.3 | 0.00 | 0.00 | 0.00 | 25 | 1011.3 |
| 20260504203002 | 63 | 0 | 9.6 | 11.3 | 0.00 | 0.00 | 0.00 | 24 | 1011.7 |
| 20260504202458 | 64 | 321 | 7.0 | 13.0 | 0.00 | 0.00 | 0.00 | 24 | 1011.3 |
| 20260504201955 | 64 | 16 | 4.3 | 11.3 | 0.00 | 0.00 | 0.00 | 24 | 1011.7 |
| 20260504201453 | 66 | 321 | 7.8 | 12.2 | 0.00 | 0.00 | 0.00 | 23 | 1011.3 |
| 20260504200950 | 67 | 340 | 5.2 | 12.2 | 0.00 | 0.00 | 0.00 | 22 | 1011.5 |
| 20260504200447 | 66 | 247 | 6.1 | 11.3 | 0.00 | 0.00 | 0.00 | 22 | 1011.4 |
| 20260504195943 | 66 | 216 | 5.2 | 13.0 | 0.00 | 0.00 | 0.00 | 22 | 1011.5 |
| 20260504195439 | 65 | 219 | 6.1 | 7.8 | 0.00 | 0.00 | 0.00 | 23 | 1011.7 |
| 20260504194936 | 64 | 252 | 3.5 | 10.4 | 0.00 | 0.00 | 0.00 | 22 | 1011.8 |
| 20260504194432 | 64 | 178 | 2.6 | 9.6 | 0.00 | 0.00 | 0.00 | 21 | 1011.9 |
| 20260504193928 | 65 | 232 | 5.2 | 10.4 | 0.00 | 0.00 | 0.00 | 21 | 1011.9 |
| 20260504193425 | 65 | 241 | 7.0 | 9.6 | 0.00 | 0.00 | 0.00 | 21 | 1011.8 |
| 20260504192924 | 65 | 214 | 5.2 | 7.8 | 0.00 | 0.00 | 0.00 | 21 | 1011.9 |
| 20260504192421 | 65 | 163 | 5.2 | 5.2 | 0.00 | 0.00 | 0.00 | 20 | 1011.7 |
| 20260504191920 | 65 | 154 | 3.5 | 3.5 | 0.00 | 0.00 | 0.00 | 19 | 1011.8 |
| 20260504191418 | 65 | 198 | 0.0 | 1.7 | 0.00 | 0.00 | 0.00 | 18 | 1011.4 |
| 20260504190913 | 65 | 33 | 0.0 | 1.7 | 0.00 | 0.00 | 0.00 | 18 | 1011.8 |
| 20260504190409 | 65 | 297 | 1.7 | 2.6 | 0.00 | 0.00 | 0.00 | 18 | 1011.7 |
| 20260504185905 | 64 | 312 | 4.3 | 5.2 | 0.00 | 0.00 | 0.00 | 19 | 1011.8 |